Time,TemperatureF,DewpointF,PressureIn,WindDirection,WindDirectionDegrees,WindSpeedMPH,WindSpeedGustMPH,Humidity,HourlyPrecipIn,Conditions,Clouds,dailyrainin,SoftwareType,DateUTC
2013-05-14 17:34:00,75.0,51.0,29.77,WSW,244,3.0,10.0,43,0.00,,,0.00,,2013-05-14 21:34:00,
2013-05-14 17:43:00,75.0,51.0,29.77,WSW,244,3.0,10.0,43,0.00,,,0.00,,2013-05-14 21:43:00,
2013-05-14 17:53:00,74.0,50.0,29.77,SSW,204,2.0,7.0,43,0.00,,,0.00,,2013-05-14 21:53:00,
2013-05-14 18:03:00,74.0,50.0,29.77,SSW,204,2.0,7.0,43,0.00,,,0.00,,2013-05-14 22:03:00,
2013-05-14 18:13:00,74.0,50.0,29.77,SSW,204,2.0,7.0,43,0.00,,,0.00,,2013-05-14 22:13:00,
2013-05-14 18:24:00,74.0,50.0,29.77,SSW,204,2.0,7.0,43,0.00,,,0.00,,2013-05-14 22:24:00,
2013-05-14 18:35:00,74.0,52.0,29.76,WSW,254,1.0,5.0,46,0.00,,,0.00,,2013-05-14 22:35:00,
2013-05-14 18:45:00,74.0,52.0,29.76,WSW,254,1.0,5.0,46,0.00,,,0.00,,2013-05-14 22:45:00,
2013-05-14 18:55:00,74.0,52.0,29.76,WSW,254,1.0,5.0,46,0.00,,,0.00,,2013-05-14 22:55:00,
2013-05-14 19:03:00,76.0,52.0,29.75,South,188,1.0,3.0,44,0.00,,,0.00,,2013-05-14 23:03:00,
2013-05-14 19:11:00,77.0,53.0,29.75,WSW,253,1.0,4.0,43,0.00,,,0.00,,2013-05-14 23:11:00,
2013-05-14 19:12:00,76.0,52.0,29.75,South,188,1.0,3.0,44,0.00,,,0.00,,2013-05-14 23:12:00,
2013-05-14 19:22:00,76.0,52.0,29.75,West,275,2.0,7.0,44,0.00,,,0.00,,2013-05-14 23:22:00,
2013-05-14 19:32:00,77.0,53.0,29.75,WSW,253,1.0,4.0,43,0.00,,,0.00,,2013-05-14 23:32:00,
2013-05-14 19:44:00,77.0,53.0,29.75,WSW,253,1.0,4.0,43,0.00,,,0.00,,2013-05-14 23:44:00,
2013-05-14 19:52:00,77.0,53.0,29.75,WSW,253,1.0,4.0,43,0.00,,,0.00,,2013-05-14 23:52:00,
2013-05-14 20:02:00,77.0,53.0,29.75,WSW,253,1.0,4.0,43,0.00,,,0.00,,2013-05-15 00:02:00,
2013-05-14 20:21:00,69.0,50.0,29.74,East,93,2.0,8.0,50,0.00,,,0.00,,2013-05-15 00:21:00,
2013-05-14 20:32:00,69.0,50.0,29.74,East,93,2.0,8.0,50,0.00,,,0.00,,2013-05-15 00:32:00,
2013-05-14 20:42:00,69.0,50.0,29.74,East,93,2.0,8.0,50,0.00,,,0.00,,2013-05-15 00:42:00,
2013-05-14 20:51:00,64.0,47.0,29.74,East,90,1.0,6.0,55,0.00,,,0.00,,2013-05-15 00:51:00,
2013-05-14 21:11:00,64.0,47.0,29.74,East,90,1.0,6.0,55,0.00,,,0.00,,2013-05-15 01:11:00,
2013-05-14 21:22:00,61.0,47.0,29.75,ESE,105,1.0,5.0,59,0.00,,,0.00,,2013-05-15 01:22:00,
2013-05-14 21:32:00,60.0,46.0,29.74,ESE,110,0.0,4.0,60,0.00,,,0.00,,2013-05-15 01:32:00,
2013-05-14 22:02:00,59.0,46.0,29.73,SE,129,1.0,7.0,63,0.00,,,0.00,,2013-05-15 02:02:00,
2013-05-14 22:11:00,59.0,46.0,29.73,SE,129,1.0,7.0,63,0.00,,,0.00,,2013-05-15 02:11:00,
2013-05-14 22:22:00,58.0,46.0,29.72,SE,128,1.0,5.0,64,0.00,,,0.00,,2013-05-15 02:22:00,
2013-05-14 22:32:00,58.0,46.0,29.72,SE,128,1.0,5.0,64,0.00,,,0.00,,2013-05-15 02:32:00,
2013-05-14 22:42:00,58.0,46.0,29.72,SE,128,1.0,5.0,64,0.00,,,0.00,,2013-05-15 02:42:00,
2013-05-14 22:52:00,57.0,46.0,29.74,SSE,147,0.0,4.0,66,0.00,,,0.00,,2013-05-15 02:52:00,
2013-05-14 23:01:00,57.0,46.0,29.74,SSE,147,0.0,4.0,66,0.00,,,0.00,,2013-05-15 03:01:00,
2013-05-14 23:13:00,57.0,46.0,29.74,SSE,147,0.0,4.0,66,0.00,,,0.00,,2013-05-15 03:13:00,
2013-05-14 23:22:00,57.0,47.0,29.77,NNW,348,1.0,4.0,69,0.00,,,0.00,,2013-05-15 03:22:00,
2013-05-14 23:33:00,57.0,47.0,29.77,NNW,348,1.0,4.0,69,0.00,,,0.00,,2013-05-15 03:33:00,
2013-05-14 23:44:00,56.0,48.0,29.75,SSE,168,0.0,1.0,75,0.00,,,0.00,,2013-05-15 03:44:00,
2013-05-14 23:54:00,56.0,48.0,29.75,SSE,168,0.0,1.0,75,0.00,,,0.00,,2013-05-15 03:54:00,